Weather in Thasos

Greece     40°46′47″N   24°42′46″E
temp.,
°C
wind,
m/s
gust,
m/s
humid.,
%
clouds,
%
prec.,
mm/h
press.,
hPa
HPBL,
m
23 january, sat
sat2323:00+10nne22829 0.0 1019126
02:00+10n118321 0.0 101795
05:00+11ene118336 0.0 101771
08:00+11sse2586100 0.2 1016263
11:00+13ssw4783100 0.9 1016420
14:00+13ssw587499 1.2 1012747
17:00+13ssw5877100 0.3 1012620
20:00+13ssw61278100 0.9 1010772
24 january, sun
sun2423:00+13ssw14207799 0.5 10071197
02:00+13sw12177771 2.5 10071198
05:00+13sw712740 1.3 1007824
08:00+12wsw697834 2.6 1008724
11:00+14wsw6106510 0.0 1008708
14:00+14sw8126236 0.0 1007908
17:00+13sw577083 0.0 1008534
20:00+13s457479 0.0 1007235
25 january, mon
mon2523:00+13ssw5974100 0.0 1006467
02:00+14ssw91576100 2.1 10031170
05:00+13sw121778100 0.8 10011122
08:00+13sw12186978 3.6 9991093
11:00+14wsw812650 0.3 10001198
14:00+14w710551 0.0 1006752
17:00+13wsw575488 0.0 1008413
20:00+13sw811607 0.1 1006961
26 january, tue
tue2623:00+11wsw6116995 0.7 10061286
02:00+12wsw126783 0.0 100865
05:00+11ssw266951 0.0 1006424
08:00+9wnw556423 0.0 1013522
11:00+8nw3367100 0.0 1014485
14:00+12ssw5981100 0.5 1003771
17:00+9ese6669100 0.1 1014781
20:00+13ssw91492100 11.8 998807
27 january, wed
wed2723:00+8ne6746100 0.0 10161172
02:00+7ne555088 0.0 1016725
05:00+2nw3497100 1.7 1005271
08:00+6ne44500 0.0 1016576
11:00+6nnw22420 0.0 1015409
14:00+6wnw7855100 0.1 10111165
17:00+7wnw5548100 0.0 10131339
20:00+8s224416 0.1 10151051